Regional Weather Roundup
Issued by NWS Upton, NY

Current Version | Previous Version | Graphics & Text | Print | Product List | Glossary Off
Versions: 1 2 3 4 5 6 7 8 9 10 11 12 13 14 15 16 17 18 19 20 21 22 23 24 25 26 27 28 29 30 31 32 33 34 35 36 37 38 39 40 41 42 43 44 45 46 47 48 49 50

061
ASUS41 KOKX 102008
RWROKX

REGIONAL WEATHER ROUNDUP
NATIONAL WEATHER SERVICE NEW YORK NY
300 PM EST SUN DEC 10 2017

NOTE: "FAIR" INDICATES FEW OR NO CLOUDS BELOW 12,000 FEET WITH NO
SIGNIFICANT WEATHER AND/OR OBSTRUCTIONS TO VISIBILITY.

NYZ071-072-176-178-NJZ106-104-102100-
NEW YORK CITY METRO AREA

CITY           SKY/WX    TMP DP  RH WIND       PRES   REMARKS
Central Park   PTSUNNY   39  22  50 MISG      29.94R
Bronx Bot Gard   N/A     37  23  56 W8        29.94R WCI  31
Bronx Lehman C   N/A     37  23  56 W10         N/A  WCI  30
LaGuardia APRT PTSUNNY   40  22  48 W18       29.92R WCI  31
Queens College   N/A     37  25  60 W12         N/A  WCI  30
Kennedy INTL   PTSUNNY   38  25  59 W16       29.95R WCI  29
Breezy Point     N/A     37 N/A N/A W13G22      N/A  WCI  29
Brooklyn Coll    N/A     39  25  56 SW12        N/A  WCI  32
Staten Island    N/A     37  25  60 W9          N/A  WCI  31
Newark/Liberty PTSUNNY   39  22  50 W17       29.94R WCI  30
Teterboro      CLOUDY    40  23  50 W12G20    29.92R WCI  33
$$

NYZ177-179-078>081-102100-
LONG ISLAND NEW YORK

CITY           SKY/WX    TMP DP  RH WIND       PRES   REMARKS
Jones Beach      N/A     37 N/A N/A W14G23      N/A  WCI  29
Wantagh          N/A     39  27  60 W9          N/A  WCI  33
Matinecock PT    N/A     39 N/A N/A W22         N/A  WCI  29
Farmingdale    MOSUNNY   38  23  55 W13       29.92R WCI  30
MacArthur/ISP  MOSUNNY   38  25  59 W14       29.91R WCI  30
Shirley        SUNNY     39  26  59 W12       29.91R WCI  32
Mt Sinai Harb    N/A    N/A N/A N/A W10G18      N/A
Westhampton    SUNNY     39  25  57 W13       29.92R WCI  31
East Hampton   FAIR      38  26  61 W10G22    29.89R WCI  31
Southold         N/A     39  28  65 W8          N/A  WCI  34
Montauk          N/A     41  27  57 W13G25    29.89R
$$

NYZ052-065-067-102100-
HUDSON VALLEY

CITY           SKY/WX    TMP DP  RH WIND       PRES   REMARKS
White Plains   PTSUNNY   36  22  56 W7        29.89R WCI  30
Larchmont Harb   N/A     37 N/A N/A SW18G24     N/A  WCI  27
Croton On Huds   N/A     39 N/A N/A NW8         N/A  WCI  34
Somers           N/A     36  23  60 W2          N/A
Brewster         N/A     34  23  64 NW6         N/A  WCI  29
Newburgh       PTSUNNY   36  23  60 W18       29.88R WCI  25
Montgomery     CLOUDY    36  21  54 W9        29.87R WCI  29
Otisville        N/A     34  21  60 W6          N/A  WCI  29
Warwick          N/A     36  21  55 W9          N/A  WCI  29
Suffern          N/A     36  23  60 W9          N/A  WCI  29
Poughkeepsie   CLOUDY    36  20  52 W9        29.88R WCI  29
Albany         CLOUDY    35  21  56 W7        29.85R WCI  29
$$

NJZ001-105-106-008-010-013-015-019>022-104-102100-
NEW JERSEY

CITY           SKY/WX    TMP DP  RH WIND       PRES   REMARKS
Newark/Liberty PTSUNNY   39  22  50 W17       29.94R WCI  30
Teterboro      CLOUDY    40  23  50 W12G20    29.92R WCI  33
Caldwell       CLOUDY    38  22  52 W7        29.92R WCI  33
Somerville     CLOUDY    37  23  56 W9        29.93R WCI  30
Linden         FAIR      38  22  51 W10G17    29.95R WCI  31
Perth Amboy      N/A     37 N/A N/A W15         N/A  WCI  28
Sussex         PTSUNNY   37  21  52 SW9       29.89R WCI  30
Andover        NOT AVBL
Trenton        CLOUDY    37  22  54 W8G16     29.97R WCI  31
Millville      PTSUNNY   39  27  62 W12       30.01R WCI  32
Atlantic City  SUNNY     39  25  57 W12       29.99R WCI  32
Wrightstown    CLOUDY    37  23  58 W10       29.95R WCI  29
Toms River     SUNNY     37  26  64 W10       29.98R WCI  30
Belmar         SUNNY     37  25  61 W8G17     29.97R WCI  31
$$

PAZ047>061-062-071-102100-
EASTERN PENNSYLVANIA

CITY           SKY/WX    TMP DP  RH WIND       PRES   REMARKS
Philadelphia   PTSUNNY   38  20  48 W16       30.00R WCI  29
Allentown      CLOUDY    36  22  56 W10G21    29.94R WCI  28
Scranton       CLOUDY    33  22  63 SW12G22   29.88R WCI  24
$$

CTZ002-004>006-009-010-012-RIZ004-006-007-MAZ004-011-015-102100-
SOUTHERN NEW ENGLAND
 IN CT

CITY           SKY/WX    TMP DP  RH WIND       PRES   REMARKS
Bradley INTL   PTSUNNY   37  22  54 SW9       29.86R WCI  30
Hartford       MOSUNNY   38  22  52 SW6       29.87R WCI  33
Danbury        CLOUDY    36  21  54 W7        29.89R WCI  30
Wtrbury/Oxford MOSUNNY   35  21  56 W14G20    29.86R WCI  26
Norwalk Harbor   N/A     37 N/A N/A W13         N/A  WCI  29
Bridgeport     MOSUNNY   39  23  52 W10       29.90R WCI  32
Meriden        SUNNY     37  21  52 W9        29.88R WCI  30
New Haven      MOSUNNY   39  23  52 W12G18    29.89R WCI  32
Chester        FAIR      39  19  45 VRB7      29.86R WCI  34
Groton         SUNNY     40  22  48 W12       29.87R WCI  33
Wilimantic     MOSUNNY   38  24  57 SW6       29.86R WCI  33

 IN RI

CITY           SKY/WX    TMP DP  RH WIND       PRES   REMARKS
Providence     MOSUNNY   37  24  59 W14       29.87R WCI  28
Block Island     N/A    N/A N/A N/A MISG        N/A
Westerly       SUNNY     40  24  53 W8        29.87R WCI  34
 IN MA

CITY           SKY/WX    TMP DP  RH WIND       PRES   REMARKS
Boston         PTCLDY    37  23  56 W16       29.83R WCI  28
Worcester      PTSUNNY   31  19  61 W10       29.80R WCI  22
Westfield      CLOUDY    36  22  56 W9        29.84R WCI  29
Provincetown   PTCLDY    39  27  62 W15       29.84R WCI  31
Nantucket      CLEAR     40  29  64 W17       29.85R WCI  31
$$

ANZ330-335-338-340-345-350-353-355-102100-
COASTAL MARINE OBSERVATIONS


STATION/POSITION TIME  SKY/WX   TEMP    WIND        PRES    VSBY  WAVE
                                AIR SEA DIR/SP/G                  HT/PER
                 (UTC)          (F)     (DEG/KT/KT) (MB)    (MI)  (FT/S)
NY HARB ENTRANCE 1850            40 52  270/ 17/ 21 1012.4          4/10
20 S FIRE ISLAND 1850            40 53  280/ 17/ 21 1013.0          6/10
GREAT SOUTH BAY  1915            39 45  270/ 14/ 16   N/A
HUDSON CANYON    1850            42 56  280/ 19/ 27 1013.4          8/ 7
KINGS POINT      1930            39 46  310/ 15/ 21 1013.7
EXECUTION ROCKS  1930            44     230/ 14/ 19   N/A
WESTERN LI SOUND 1849            40     260/ 14/ 21   N/A           1/ 3
CENTRAL LI SOUND NOT AVBL
ROBBINS REEF     1930            38     270/ 15/ 23 1013.9
$$


>>>>>>>>>>>>>>>>>>>>>>>>>>>> KEY <<<<<<<<<<<<<<<<<<<<<<<<<<<
>                                                          <
>     SKY/WX - Sky Condition/Present Weather               <
>     TMP    - Temperature in Fahrenheit                   <
>     DP     - Dew Point in Fahrenheit                     <
>     RH     - Relative Humidity in Percent                <
>     WIND   - Direction (from) and Speed in MPH           <
>     PRES   - Mean Sea Level Pressure (inches of Hg)      <
>     WCI    - Wind Chill Index                            <
>     VSB    - VISIBILITY IN MILES                         <
>     HX     - HEAT INDEX                                  <
>     TC     - TEMPERATURE IN CELSIUS                      <
>     VRB    - VARIABLE WIND DIRECTION                     <
>                                                          <
>>>>>>>>>>>>>>>>>>>>>>>>>>>> KEY <<<<<<<<<<<<<<<<<<<<<<<<<<<




USA.gov is the U.S. government's official web portal to all federal, state and local government web resources and services.